Content
SEND FEEDBACK

Daily
Averages
Monthly
Summary
United States of America

BERKELEY, MISSOURI


Home > North America > United States > Missouri
Elevation: 564 feet     Latitude: 38 45N     Longitude: 090 22W

WEATHER
 
SELECT A DAY
Number of Records: 203,517;   Date Range: 1/1/95 - 8/28/14
 
SHARE

PRINT THIS DATA

[ ← Previous Day ]
WEATHER ALMANAC - FEBRUARY 23, 2013
[ Next Day → ]
[ °C ]   °F
Weather ElementAverageHighLow
Temperature26.1 °F33.1 °F (3:51 pm)17.1 °F (5:51 am)
Dewpoint16.7 °F19 °F (3:51 pm)12.9 °F (5:51 am)
Humidity68.3 %84 % (5:51 am)54 % (12:51 pm)
Barometer30.07 in30.10 in (1:51 am)30.04 in (2:51 pm)
Wind Speed3.1 mph8.1 mph (7:51 am)
Weather ElementAverage
Visibility8.9 mi
Wind DirectionSSE (174.3 °)

Weather ElementTotal
Precipitation---
Heating Degree Days39.9 (Base 65)
Averaged from 23 records on February 23, 2013
WEATHER CONDITIONS BREAKOUT
WIND DIRECTION BREAKOUT
WEATHER BY HOUR - FEBRUARY 23, 2013
[ °C ]   °F
Local TimeTemperatureDewpointHumidityBarometerVisibilityWind DirectionWind SpeedGust SpeedPrecipitationEventsConditions
1:51 AM23.0 °F16.0 °F74 %30.10 in9.0 miWSW (250°)5.8 mphClear
2:51 AM21.9 °F15.1 °F75 %30.09 in9.0 miWest (260°)4.6 mphClear
3:51 AM19.9 °F14.0 °F78 %30.09 in8.0 miWest (270°)5.8 mphClear
4:51 AM19.0 °F14.0 °F81 %30.08 in8.0 miCalmClear
5:51 AM17.1 °F12.9 °F84 %30.09 in6.0 miWest (270°)4.6 mphClear
6:51 AM17.1 °F12.9 °F84 %30.09 in5.0 miWest (260°)4.6 mphClear
7:51 AM21.0 °F15.1 °F78 %30.09 in5.0 miWest (260°)8.1 mphHaze
8:51 AM24.1 °F16.0 °F71 %30.08 in7.0 miWNW (290°)5.8 mphPartly Cloudy
9:51 AM28.0 °F17.1 °F63 %30.09 in9.0 miWest (270°)5.8 mphScattered Clouds
10:51 AM28.0 °F17.1 °F63 %30.09 in10.0 miWest (270°)4.6 mphPartly Cloudy
11:51 AM30.2 °F17.6 °F60 %30.05 in10.0 miWNW (300°)3.5 mphScattered Clouds
12:51 PM32.0 °F17.1 °F54 %30.06 in10.0 miNW (310°)4.6 mphScattered Clouds
1:51 PM32.0 °F18.0 °F56 %30.05 in10.0 miCalmScattered Clouds
2:51 PM32.0 °F18.0 °F56 %30.04 in10.0 miNorth (350°)4.6 mphPartly Cloudy
3:51 PM33.1 °F19.0 °F56 %30.04 in10.0 miNW (320°)4.6 mphScattered Clouds
4:51 PM33.1 °F19.0 °F56 %30.04 in10.0 miNNW (330°)4.6 mphPartly Cloudy
5:51 PM32.0 °F19.0 °F59 %30.05 in10.0 miCalmPartly Cloudy
6:51 PM30.0 °F18.0 °F61 %30.06 in10.0 miCalmPartly Cloudy
7:51 PM28.9 °F18.0 °F64 %30.06 in10.0 miCalmClear
8:51 PM28.0 °F18.0 °F66 %30.07 in9.0 miCalmClear
9:51 PM25.0 °F18.0 °F75 %30.06 in10.0 miCalmClear
10:51 PM23.0 °F17.1 °F78 %30.06 in10.0 miCalmClear
11:51 PM23.0 °F17.1 °F78 %30.07 in10.0 miCalmClear
Hourly data recorded from KSTL, located miles away from Berkeley, Missouri







STORIES FROM OUR PARTNERS